Location: Unspecified
(43.4680°N, 87.1740°E)
Time: 19:40:47
(UTC+00:00)

NOSS 3-3 (A) - Pass Details

Date: 17 April 2021
Orbit: 805 x 1407 km, 63.4° (Epoch: 09 May)

Event Time Altitude Azimuth Distance (km) Brightness Sun altitude
Exits shadow 21:03:06 47° 256° (WSW) 1,189 4.0 -23.1°
Maximum altitude 21:04:39 62° 311° (NW) 1,034 4.0 -22.9°
Drops below altitude 10° 21:11:09 10° 32° (NNE) 2,834 7.5 -22.0°
Sets 21:14:01 0° 36° (NE) 3,886 8.5 -21.6°
